Showing default

IRIDIUM 29, 24944

Orbit data source: Space-Track

IRIDIUM 29, 24944 is a payload satellite owned by Iridium (US) in LEO that was launched on Sun, 14 Sep 1997 UTC via a PROTON-K/17S40 launch vehicle from the Tyuratam Missile And Space Complex (TTMTR). Payload-class satellites include a variety of spacecraft equipped with specific instruments for various scientific and technological missions. These include communications satellites like Starlink; space stations such as the ISS; scientific satellites like the Hubble; Earth observation satellites from companies like Planet Labs, Umbra, and HawkEye 360; GPS; miniature CubeSats for education and research; and military/defense satellites.

Loading next visibility...
Identifier
24944, 1997-051A
Orbit
LEO
Country
Flag of USUS
Related business
Manufacturer
MOTO/LMMS
Mission
Non-operational Commercial Communications
Bus & Motor
LM700, Unknown motor
Mass
662 kg wet, 556 kg dry
Launch date (UTC)
1997-09-14 (29 years ago)
Launch vehicle
PROTON-K/17S40
Launch site
Tyuratam Missile And Space Complex (TTMTR)
Object type
Payload
Rocket body
Debris
Shape & HBR
Box + 2 Pan, 4.0 m
Radar Cross Section
5.666 m², Large (>1 m²)

Expand to show TLE details & history
Last TLE update: 6 hours ago

TLE from 6 hours ago
0 IRIDIUM 29
1 24944U 97051A   26266.58146960  .00000219  00000-0  67331-4 0  9992
2 24944  86.3944 309.3509 0002097  96.7535 263.3901 14.36849581519807
Epoch: 2026-09-23T13:57Z
TLE epoch observation values (Epoch: 2026-09-23T13:57:18.973Z)
Latitude
-0.00002°
Longitude
97.59131°
Altitude
772.154 km
Speed
7.468 km/s
True Right ascension
20h 37m 24s
True Declination
0° 00' 00"
Sunlit
Object was in full shadow at epoch
Visualization orbit readout
Latitude
Unknown
Longitude
Unknown
Altitude
Unknown
Speed
Unknown
Apparent Right ascension
Unknown
Apparent Declination
Unknown
Sunlit
N/A
Visualization observer readout
Local Sidereal Time
12:41:51
Azimuth
Unknown
Elevation
Unknown
Doppler factor
Unknown
Orbital elements
Apogee altitude
767.385 km
Perigee altitude
764.389 km
Semi-major axis
7,144.024 km
Eccentricity
0.00021
Inclination
86.3944°
RAAN
309.3509°
Arg. of periapsis
96.7535°
True anomaly
263.36623°
Mean anomaly
263.3901°
Eccentric anomaly
263.37817°
Mean motion
3.59442 °/min
Orbital period
100.16 mins
BSTAR
0.000067331
Loading maneuver chart data...
Computing Atmospheric mass density...

Documentation

Showing up to 5 results
|